[[{"header":{"parameterUnit":"m.s-1","parameterCategory":1,"la1":30.2991,"la2":30.254,"lo1":-89.0895,"lo2":-89.0444,"dy":0.0017,"dx":0.0017,"nx":28,"ny":28,"refTime":"2025-04-20T03:00:00:Z","depth":0,"parameterNumber":2,"parameterNumberName":"U-component_of_WINDS"},"data":[0,0,0,0,0,0,0,0,0,0,0,0,0,0,0,0,0,0,0,0,0,0,0,0,0,0,0,0,0,0,0,0,0,0,0,0,0,0,0,0,0,0,0,0,0,0,0,0,0,0,0,0,0,0,0,0,0,0,-4.886,-4.886,0,-4.8906,-4.8907,-4.8907,-4.8879,-4.8878,-4.8876,-4.8875,-4.8921,-4.8924,-4.8926,0,0,0,0,0,0,0,0,0,0,0,0,0,-4.8746,-4.8749,-4.886,-4.886,-4.8861,-4.8906,-4.8907,-4.8908,-4.8879,-4.8878,-4.8876,-4.8874,-4.892,-4.8923,-4.8926,0,0,0,0,0,0,0,0,0,0,0,0,0,-4.8794,-4.8749,-4.8859,-4.8852,-4.8852,-4.8906,-4.8907,-4.8908,-4.888,-4.8878,-4.8876,-4.8874,-4.892,-4.8923,-4.8927,-4.899,0,0,-4.8938,-4.894,0,0,0,0,0,0,0,0,-4.8792,-4.8799,-4.8853,-4.8853,-4.8853,-4.8885,-4.8884,-4.8935,-4.888,-4.8869,-4.8875,-4.8873,-4.8911,-4.8915,-4.8928,-4.8992,-4.8994,-4.8939,-4.8941,-4.8942,-4.8943,0,0,0,0,0,0,0,-4.8788,-4.8797,-4.8878,-4.8854,-4.8854,-4.8847,-4.8851,-4.8894,-4.8901,-4.887,-4.8868,-4.8874,-4.891,-4.8925,-4.8929,-4.8995,-4.8938,-4.8942,-4.8944,-4.8946,-4.9115,-4.9117,0,0,0,0,0,0,-4.8786,-4.8794,-4.8877,-4.8879,-4.8817,-4.885,-4.8856,-4.8877,-4.89,-4.8902,-4.8876,-4.8872,-4.8919,-4.8925,-4.8931,-4.9006,-4.8942,-4.8946,-4.8948,-4.9113,-4.9116,-4.9118,0,0,0,0,0,0,-4.8783,-4.8793,-4.8875,-4.8836,-4.8846,-4.8855,-4.8878,-4.8879,-4.8893,-4.8904,-4.8905,-4.8889,-4.8918,-4.8925,-4.8976,-4.9007,-4.8948,-4.8951,-4.911,-4.9114,-4.9117,-4.9158,0,0,0,0,0,0,-4.878,-4.8793,-4.8816,-4.8837,-4.8848,-4.8919,-4.888,-4.8881,-4.8899,-4.8896,-4.8917,-4.8919,-4.8917,-4.8971,-4.898,-4.9011,-4.8954,-4.9107,-4.9112,-4.9116,-4.9154,-4.9162,-4.917,0,0,0,0,0,-4.8776,-4.8826,-4.8818,-4.8828,-4.8878,-4.8921,-4.8927,-4.8925,-4.8902,-4.8926,-4.8934,-4.8918,-4.9004,-4.8976,-4.8986,-4.9019,-4.9105,-4.9111,-4.9116,-4.915,-4.9161,-4.917,0,0,0,0,0,0,-4.8807,-4.8828,-4.8819,-4.8877,-4.8898,-4.8916,-4.8946,-4.8936,-4.8962,-4.8958,-4.8953,-4.8958,-4.9011,-4.9021,-4.899,-4.9083,-4.9051,-4.9058,-4.9074,-4.9084,-4.9092,-4.9087,-4.8957,0,0,0,0,0,-4.8821,-4.8854,-4.8871,-4.892,-4.8931,-4.8937,-4.8955,-4.8952,-4.8973,-4.8981,-4.8993,-4.9013,-4.9045,-4.9065,-4.9095,-4.9157,-4.9161,-4.9185,-4.9193,-4.9199,-4.9205,-4.9238,-4.9249,-4.9135,-4.9135,-4.9135,0,0,-4.8848,-4.8864,-4.8885,-4.8926,-4.8942,-4.8976,-4.8944,-4.8981,-4.9007,-4.8987,-4.9035,-4.9045,-4.9068,-4.9124,-4.915,-4.9134,-4.9238,-4.9206,-4.9211,-4.9213,-4.9245,-4.9255,-4.9265,-4.9139,-4.9138,-4.9137,0,0,-4.8916,-4.8932,-4.8975,-4.8992,-4.9016,-4.9021,-4.9032,-4.9053,-4.9059,-4.9108,-4.9093,-4.9124,-4.9179,-4.9196,-4.9212,-4.9291,-4.9277,-4.9301,-4.9341,-4.9374,-4.9383,-4.939,-4.9417,-4.9427,-4.9307,-4.9307,-4.9307,0,-4.8947,-4.8998,-4.8998,-4.9037,-4.9055,-4.9041,-4.9084,-4.9101,-4.9134,-4.9147,-4.913,-4.9199,-4.9213,-4.9274,-4.9293,-4.9307,-4.9319,-4.9296,-4.9382,-4.9389,-4.9397,-4.9422,-4.9433,-4.931,-4.9309,-4.9309,-4.9309,0,-4.9035,-4.9072,-4.9103,-4.9136,-4.9159,-4.92,-4.9206,-4.9229,-4.9225,-4.9232,-4.9283,-4.9301,-4.9334,-4.9349,-4.9345,-4.9409,-4.9399,-4.9382,-4.9349,-4.941,-4.9434,-4.9444,-4.9313,-4.9312,-4.9312,-4.9311,0,0,-4.9119,-4.9154,-4.9165,-4.9181,-4.9209,-4.9237,-4.9279,-4.9312,-4.9332,-4.9357,-4.939,-4.9439,-4.9424,-4.9442,-4.9441,-4.947,-4.9531,-4.945,-4.945,-4.9463,-4.9603,-4.9613,-4.9625,-4.9524,-4.9526,-4.9527,-4.96,0,-4.9187,-4.9259,-4.9261,-4.9327,-4.936,-4.9349,-4.9385,-4.9407,-4.9415,-4.9445,-4.9455,-4.9489,-4.9467,-4.9478,-4.9507,-4.9517,-4.9559,-4.9513,-4.9554,-4.9556,-4.9546,-4.9637,-4.9648,-4.9716,-4.961,-4.9611,-4.9613,0,-4.9275,-4.9304,-4.9373,-4.9398,-4.9412,-4.9444,-4.9476,-4.9505,-4.953,-4.9534,-4.9557,-4.9552,-4.9595,-4.9564,-4.9623,-4.9591,-4.961,-4.9618,-4.962,-4.9621,-4.9585,-4.9639,-4.9738,-4.9747,-4.9628,-4.9626,-4.9625,0,-4.9327,-4.9384,-4.9432,-4.9446,-4.9477,-4.95,-4.9514,-4.9537,-4.9557,-4.9586,-4.96,-4.9633,-4.965,-4.9677,-4.9681,-4.9658,-4.974,-4.971,-4.9744,-4.9744,-4.9759,-4.9757,-4.9859,-4.9775,-4.9775,-4.9775,-4.9775,0,-4.9402,-4.9444,-4.9456,-4.9486,-4.9533,-4.9537,-4.9584,-4.9596,-4.9618,-4.965,-4.9644,-4.9674,-4.9679,-4.9711,-4.9716,-4.9763,-4.9772,-4.9776,-4.9776,-4.9775,-4.9774,-4.9784,-4.9779,-4.9777,-4.9777,-4.9776,-4.9776,0,-4.9466,-4.9476,-4.9528,-4.9554,-4.9562,-4.9596,-4.9618,-4.9647,-4.9657,-4.9697,-4.9707,-4.9722,-4.9759,-4.9768,-4.9812,-4.9815,-4.9872,-4.9868,-4.9863,-4.9862,-4.9895,-4.9891,-5.0005,-5.002,-4.9928,-4.9929,-4.993,0,-4.9511,-4.9544,-4.9574,-4.9595,-4.961,-4.9645,-4.9667,-4.9673,-4.9696,-4.9728,-4.9753,-4.9791,-4.982,-4.9881,-4.9895,-4.993,-4.9926,-4.9964,-4.993,-4.9929,-4.9924,-4.9921,-4.9924,-4.9968,-4.9969,-4.997,-4.9971,0,-4.959,-4.9594,-4.9625,-4.966,-4.9686,-4.9713,-4.9739,-4.9757,-4.9767,-4.9794,-4.9832,-4.9856,-4.9902,-4.9939,-4.9974,-4.9989,-4.9981,-4.9982,-4.9991,-4.9989,-4.9984,-4.9986,-4.9877,-4.9978,-4.9978,-4.9977,-4.9977,-4.9976,-4.9645,-4.9673,-4.9699,-4.9735,-4.9756,-4.9781,-4.981,-4.9824,-4.9856,-4.9894,-4.9897,-4.9939,-4.9965,-5.0012,-5.0029,-5.0063,-5.0051,-5.0065,-5.0068,-5.0071,-5.0073,-4.9982,-5.0069,-5.0069,-5.0069,-5.0069,-5.0069,0,-4.9722,-4.9739,-4.9772,-4.9809,-4.9838,-4.9831,-4.986,-4.9884,-4.9921,-4.9947,-4.9977,-5.0023,-5.0059,-5.0078,-5.0115,-5.0138,-5.0135,-5.0147,-5.0144,-5.0147,-5.0082,-5.0069,-5.0148,-5.0148,-5.0148,-5.0148,-5.0148,-5.0148,-4.9765,-4.9813,-4.9821,-4.988,-4.9896,-4.9938,-4.9955,-4.9978,-4.9999,-5.005,-5.008,-5.0093,-5.0117,-5.0155,-5.0189,-5.0194,-5.0206,-5.0219,-5.0222,-5.016,-5.0152,-5.0144,-5.0132,-5.0222,-5.0223,-5.0284,-5.0285,-5.0285]},{"header":{"parameterUnit":"m.s-1","parameterCategory":1,"la1":30.2991,"la2":30.254,"lo1":-89.0895,"lo2":-89.0444,"dy":0.0017,"dx":0.0017,"nx":28,"ny":28,"refTime":"2025-04-20T03:00:00:Z","depth":0,"parameterNumber":3,"parameterNumberName":"V-component_of_WINDS"},"data":[0,0,0,0,0,0,0,0,0,0,0,0,0,0,0,0,0,0,0,0,0,0,0,0,0,0,0,0,0,0,0,0,0,0,0,0,0,0,0,0,0,0,0,0,0,0,0,0,0,0,0,0,0,0,0,0,0,0,4.3388,4.3388,0,4.3432,4.3433,4.3433,4.347,4.347,4.347,4.3471,4.3514,4.3515,4.3516,0,0,0,0,0,0,0,0,0,0,0,0,0,4.3335,4.3335,4.3388,4.3388,4.3389,4.3432,4.3433,4.3433,4.3469,4.347,4.347,4.3471,4.3514,4.3515,4.3516,0,0,0,0,0,0,0,0,0,0,0,0,0,4.3366,4.3336,4.3388,4.3412,4.3415,4.3432,4.3433,4.3433,4.3469,4.347,4.3471,4.3471,4.3514,4.3515,4.3516,4.3512,0,0,4.352,4.352,0,0,0,0,0,0,0,0,4.3364,4.3368,4.3408,4.3411,4.3414,4.3446,4.343,4.346,4.3469,4.3449,4.3471,4.3471,4.3491,4.3494,4.3501,4.3514,4.3516,4.352,4.352,4.3521,4.3521,0,0,0,0,0,0,0,4.3362,4.3366,4.3405,4.3409,4.3412,4.3421,4.3426,4.3436,4.3466,4.345,4.3453,4.3458,4.3493,4.35,4.3502,4.3516,4.352,4.3521,4.3522,4.3522,4.353,4.3529,0,0,0,0,0,0,4.3356,4.3364,4.3404,4.3407,4.339,4.3421,4.3427,4.3435,4.3466,4.3471,4.3458,4.346,4.3497,4.3501,4.3504,4.3503,4.3521,4.3522,4.3523,4.353,4.353,4.3529,0,0,0,0,0,0,4.3355,4.3359,4.3402,4.3386,4.3392,4.3422,4.343,4.3435,4.3443,4.3471,4.3477,4.3459,4.3498,4.3502,4.351,4.3504,4.3523,4.3524,4.3531,4.353,4.3529,4.3498,0,0,0,0,0,0,4.3353,4.3359,4.3357,4.3386,4.3393,4.3408,4.343,4.3436,4.3445,4.3448,4.3474,4.3479,4.3499,4.3508,4.3511,4.3506,4.3525,4.3531,4.353,4.353,4.35,4.3497,4.3494,0,0,0,0,0,4.3351,4.3346,4.3357,4.3362,4.3392,4.3407,4.3411,4.3434,4.3444,4.3443,4.3462,4.3479,4.3504,4.3509,4.3512,4.3508,4.3532,4.3531,4.353,4.3501,4.3497,4.3494,0,0,0,0,0,0,4.3315,4.335,4.3363,4.3367,4.3384,4.3413,4.3413,4.3429,4.3443,4.3445,4.3472,4.3478,4.3483,4.3496,4.35,4.3506,4.352,4.352,4.3498,4.3494,4.3491,4.3488,4.3526,0,0,0,0,0,4.3308,4.3317,4.3347,4.3348,4.3356,4.3383,4.339,4.3407,4.3425,4.3432,4.3451,4.3468,4.3481,4.3488,4.35,4.3502,4.3509,4.3501,4.3498,4.3495,4.3494,4.3498,4.3495,4.3525,4.3525,4.3525,0,0,4.3292,4.3313,4.3317,4.3341,4.3356,4.3366,4.3388,4.3397,4.3405,4.3433,4.3443,4.3457,4.3478,4.3483,4.3486,4.3494,4.3488,4.3493,4.3491,4.3492,4.3496,4.3494,4.3491,4.3524,4.3525,4.3525,0,0,4.3269,4.3285,4.3289,4.3304,4.3327,4.3345,4.3346,4.3373,4.3384,4.3394,4.3416,4.3425,4.3445,4.346,4.347,4.3454,4.347,4.3457,4.3441,4.3444,4.3442,4.344,4.3435,4.3433,4.3457,4.3456,4.3456,0,4.3247,4.3263,4.3288,4.3296,4.3307,4.3334,4.3338,4.3351,4.3377,4.3383,4.3392,4.3419,4.3435,4.3444,4.3441,4.3447,4.345,4.3455,4.344,4.3438,4.3437,4.3433,4.3431,4.3455,4.3455,4.3455,4.3455,0,4.3235,4.3246,4.3246,4.3271,4.3281,4.3287,4.3313,4.3321,4.3337,4.3354,4.3364,4.3384,4.3402,4.3406,4.342,4.3418,4.3422,4.3435,4.345,4.3432,4.3429,4.3428,4.3452,4.3453,4.3454,4.3454,0,0,4.3191,4.3231,4.3231,4.3243,4.3271,4.328,4.3287,4.3306,4.3312,4.3329,4.3337,4.3354,4.3366,4.3377,4.3394,4.3397,4.3385,4.3409,4.341,4.3405,4.3385,4.3376,4.3374,4.3396,4.3395,4.3395,4.3384,0,4.3173,4.3189,4.3212,4.322,4.3231,4.3257,4.3264,4.3282,4.3299,4.331,4.3328,4.3341,4.3355,4.3363,4.3366,4.3385,4.3381,4.3386,4.3403,4.3403,4.3398,4.3372,4.3362,4.335,4.3382,4.3382,4.3382,0,4.3155,4.3172,4.3181,4.321,4.3215,4.3221,4.3241,4.3251,4.3272,4.3284,4.3298,4.3316,4.3326,4.3339,4.3353,4.3356,4.3364,4.3375,4.3375,4.3378,4.3392,4.3375,4.3347,4.3345,4.338,4.338,4.338,0,4.3123,4.3148,4.3157,4.3167,4.32,4.3204,4.3218,4.324,4.325,4.3267,4.3274,4.3291,4.3301,4.3314,4.3338,4.3345,4.335,4.3364,4.336,4.336,4.3361,4.336,4.3334,4.3364,4.3364,4.3364,4.3364,0,4.3102,4.3107,4.3144,4.3149,4.3156,4.3183,4.3189,4.3205,4.3225,4.3234,4.3258,4.3266,4.3296,4.3308,4.3326,4.3335,4.3339,4.335,4.3354,4.3348,4.3347,4.3354,4.3356,4.3364,4.3364,4.3364,4.3364,0,4.3068,4.3093,4.3105,4.3136,4.3144,4.3147,4.3174,4.3181,4.3199,4.3211,4.3215,4.3244,4.326,4.3284,4.3306,4.3318,4.3325,4.3333,4.3318,4.3322,4.3317,4.3317,4.3295,4.3294,4.3323,4.3323,4.3323,0,4.3053,4.3058,4.309,4.3099,4.3112,4.3125,4.3136,4.3163,4.3174,4.3199,4.3203,4.322,4.3236,4.3259,4.3282,4.33,4.3308,4.3299,4.3311,4.3305,4.331,4.331,4.3311,4.3297,4.3296,4.3296,4.3296,0,4.3025,4.3038,4.3053,4.3073,4.3085,4.3102,4.312,4.3125,4.3156,4.3166,4.3183,4.3195,4.3219,4.3236,4.3257,4.3272,4.3289,4.3292,4.3292,4.3286,4.3278,4.3284,4.3312,4.3292,4.3293,4.3293,4.3293,4.3293,4.3002,4.3008,4.3032,4.3048,4.3065,4.3081,4.3089,4.3109,4.3124,4.3146,4.316,4.3177,4.3199,4.3229,4.3243,4.3256,4.3263,4.3263,4.3263,4.3263,4.3261,4.3275,4.3259,4.3259,4.3259,4.326,4.326,0,4.2976,4.2993,4.3008,4.3033,4.3046,4.3062,4.3082,4.3092,4.3106,4.3126,4.3141,4.3161,4.3178,4.3203,4.3222,4.3228,4.3236,4.3232,4.3232,4.3236,4.3253,4.3251,4.3225,4.3225,4.3225,4.3225,4.3225,4.3225,4.2964,4.2976,4.2991,4.3011,4.3028,4.3045,4.3056,4.3071,4.3087,4.3108,4.3123,4.3139,4.3161,4.3182,4.3199,4.3206,4.3212,4.3206,4.3215,4.3231,4.3234,4.3237,4.3236,4.3207,4.3207,4.3197,4.3197,4.3197]}]]